Location: El Conde
(10.2895°N, 67.2409°W)
Time: 18:15:39
(UTC+00:00)

Centaur D-1AR AC-37 - Pass Details

Date: 19 May 2024
Orbit: 625 x 36461 km, 22.0° (Epoch: 11 June)

Event Time Altitude Azimuth Distance (km) Brightness Sun altitude
Rises 23:02:29 0° 290° (WNW) 3,641 11.1 -5.0°
Reaches altitude 10° 23:05:14 10° 291° (WNW) 2,194 8.8 -5.6°
Maximum altitude 23:09:06 89° 17° (NNE) 628 4.1 -6.5°
Drops below altitude 10° 23:13:41 10° 110° (ESE) 2,601 6.5 -7.6°
Enters shadow 23:14:01 - 111° (ESE) 2,766 6.7 -7.6°
